Weather History for Indianapolis, IN

Change the Weather History Date:

Wednesday, February 12, 2014

  Actual Average (KEYE) Record (KEYE)
Temperature  
Mean Temperature 9 °F 31 °F  
Max Temperature 30 °F 39 °F 55 °F (2005)
Min Temperature -12 °F 23 °F -5 °F (2014)
Degree Days  
Heating Degree Days 56 34  
Month to date heating degree days 421  
Since 1 July heating degree days 3622  
Cooling Degree Days 0 0  
Month to date cooling degree days 0  
Year to date cooling degree days 0  
Moisture  
Dew Point 0 °F    
Average Humidity 66    
Maximum Humidity 84    
Minimum Humidity 36    
Precipitation  
Precipitation 0.00 in 0.09 in 0.24 in (1993)
Month to date precipitation 0.84  
Year to date precipitation 3.05  
Sea Level Pressure  
Sea Level Pressure 30.19 in    
Wind  
Wind Speed 2 mph (East)    
Max Wind Speed 8 mph    
Max Gust Speed -    
Visibility 9 miles    
Events      
T = Trace of Precipitation, MM = Missing Value Source: NWS Daily Summary

Daily Weather History Graph

Daily Weather History Graph

Search for Another Location

Airport:

Trip Planner

Search our weather history database for the weather conditions in past years. The results will help you decide how hot, cold, wet, or windy it might be!

Date:

Astronomy

Feb. 12, 2014 Rise Set
Actual Time 7:41 AM EST 6:17 PM EST
Civil Twilight 7:13 AM EST 6:45 PM EST
Nautical Twilight 6:41 AM EST 7:17 PM EST
Astronomical Twilight 6:10 AM EST 7:48 PM EST
Moon 4:30 PM EST (2/12) 5:58 AM EST (2/12)
Length of Visible Light 11h 31m
Length of Day
10h 35m
Waxing Gibbous, 95% of the Moon is Illuminated
Feb 12
Waxing Gibbous
Feb 14
Full
Feb 22
Last Quarter
Mar 1
New
Mar 8
First Quarter

Hourly Weather History & Observations

Time (EST) Temp. Windchill Dew Point Humidity Pressure Visibility Wind Dir Wind Speed Gust Speed Precip Events Conditions
12:15 AM -2.0 °F - -7.4 °F 78% 30.38 in 10.0 mi Calm Calm - N/A   Clear
12:35 AM -0.2 °F - -5.3 °F 79% 30.38 in 10.0 mi Calm Calm - N/A   Clear
12:55 AM -2.7 °F -11.0 °F -7.8 °F 79% 30.38 in 10.0 mi ESE 3.5 mph - N/A   Clear
1:15 AM -2.7 °F -11.0 °F -8.1 °F 78% 30.37 in 10.0 mi ESE 3.5 mph - N/A   Clear
1:35 AM -4.4 °F - -9.8 °F 78% 30.37 in 10.0 mi Calm Calm - N/A   Clear
1:55 AM -3.8 °F -12.2 °F -9.6 °F 76% 30.35 in 7.0 mi ESE 3.5 mph - N/A   Clear
2:15 AM -4.5 °F -15.2 °F -9.9 °F 78% 30.35 in 7.0 mi ESE 4.6 mph - N/A   Clear
2:35 AM -1.8 °F - -7.1 °F 78% 30.35 in 7.0 mi Calm Calm - N/A   Clear
2:55 AM -2.6 °F - -8.1 °F 77% 30.34 in 7.0 mi Calm Calm - N/A   Clear
3:15 AM -3.6 °F - -9.0 °F 78% 30.34 in 7.0 mi Calm Calm - N/A   Clear
3:35 AM -2.7 °F - -8.1 °F 78% 30.33 in 7.0 mi Calm Calm - N/A   Clear
3:55 AM -4.5 °F - -10.1 °F 77% 30.32 in 7.0 mi Calm Calm - N/A   Clear
4:15 AM -6.9 °F -15.7 °F -13.0 °F 75% 30.31 in 7.0 mi ESE 3.5 mph - N/A   Clear
4:35 AM -7.4 °F - -13.2 °F 76% 30.31 in 7.0 mi Calm Calm - N/A   Clear
4:55 AM -4.2 °F - -9.9 °F 76% 30.31 in 7.0 mi Calm Calm - N/A   Clear
5:15 AM -4.0 °F - -9.8 °F 76% 30.30 in 7.0 mi Calm Calm - N/A   Clear
5:35 AM -4.0 °F - -9.4 °F 78% 30.29 in 7.0 mi Calm Calm - N/A   Clear
5:55 AM -7.2 °F - -13.5 °F 74% 30.29 in 7.0 mi Calm Calm - N/A   Clear
6:15 AM -7.8 °F - -14.3 °F 73% 30.29 in 7.0 mi Calm Calm - N/A   Clear
6:35 AM -8.7 °F - -14.6 °F 75% 30.28 in 5.0 mi Calm Calm - N/A   Haze
6:55 AM -6.5 °F - -12.5 °F 75% 30.28 in 7.0 mi Calm Calm - N/A   Clear
7:15 AM -9.6 °F - -16.2 °F 73% 30.27 in 5.0 mi Calm Calm - N/A   Haze
7:35 AM -8.3 °F - -14.3 °F 75% 30.26 in 3.0 mi Calm Calm - N/A   Haze
7:55 AM -12.6 °F - -19.1 °F 73% 30.27 in 5.0 mi Calm Calm - N/A   Haze
8:15 AM -8.1 °F - -14.1 °F 75% 30.27 in 7.0 mi Calm Calm - N/A   Clear
8:35 AM -4.0 °F - -9.8 °F 76% 30.27 in 7.0 mi Calm Calm - N/A   Clear
8:55 AM -5.1 °F - -11.4 °F 74% 30.27 in 7.0 mi Calm Calm - N/A   Clear
9:15 AM -0.2 °F - -5.3 °F 79% 30.27 in 7.0 mi Calm Calm - N/A   Clear
9:35 AM 4.3 °F -4.9 °F -0.8 °F 80% 30.26 in 7.0 mi ESE 4.6 mph - N/A   Clear
9:55 AM 7.2 °F - 2.8 °F 82% 30.26 in 10.0 mi Calm Calm - N/A   Clear
10:15 AM 9.0 °F 2.4 °F 4.5 °F 82% 30.25 in 10.0 mi ESE 3.5 mph - N/A   Clear
10:35 AM 12.0 °F 4.1 °F 7.7 °F 83% 30.25 in 10.0 mi ESE 4.6 mph - N/A   Clear
10:55 AM 12.7 °F - 8.6 °F 84% 30.25 in 10.0 mi Calm Calm - N/A   Clear
11:15 AM 15.4 °F 9.8 °F 11.5 °F 84% 30.24 in 10.0 mi SE 3.5 mph - N/A   Clear
11:35 AM 17.8 °F 12.5 °F 10.2 °F 72% 30.24 in 10.0 mi East 3.5 mph - N/A   Clear
11:55 AM 21.4 °F - 5.9 °F 51% 30.23 in 10.0 mi Calm Calm - N/A   Clear
12:15 PM 22.3 °F 16.1 °F 6.8 °F 52% 30.22 in 10.0 mi SE 4.6 mph - N/A   Clear
12:35 PM 23.7 °F 17.8 °F 7.2 °F 49% 30.20 in 10.0 mi East 4.6 mph - N/A   Clear
12:55 PM 24.8 °F 19.1 °F 7.2 °F 47% 30.18 in 10.0 mi SE 4.6 mph - N/A   Clear
1:15 PM 26.6 °F 21.2 °F 7.0 °F 43% 30.18 in 10.0 mi East 4.6 mph - N/A   Clear
1:35 PM 27.5 °F 21.1 °F 7.2 °F 42% 30.15 in 10.0 mi East 5.8 mph - N/A   Clear
1:55 PM 28.2 °F 21.0 °F 6.3 °F 39% 30.14 in 10.0 mi ESE 6.9 mph - N/A   Clear
2:15 PM 28.4 °F 22.2 °F 6.8 °F 40% 30.12 in 10.0 mi ESE 5.8 mph - N/A   Clear
2:35 PM 29.1 °F 24.1 °F 7.9 °F 41% 30.11 in 10.0 mi East 4.6 mph - N/A   Clear
2:55 PM 29.7 °F 26.1 °F 7.0 °F 38% 30.10 in 10.0 mi East 3.5 mph - N/A   Clear
3:15 PM 30.4 °F 25.6 °F 8.2 °F 39% 30.09 in 10.0 mi East 4.6 mph - N/A   Clear
3:35 PM 30.7 °F 26.0 °F 6.4 °F 36% 30.08 in 10.0 mi East 4.6 mph - N/A   Clear
3:55 PM 30.6 °F 25.8 °F 6.8 °F 37% 30.08 in 10.0 mi ESE 4.6 mph - N/A   Clear
4:15 PM 29.5 °F 25.9 °F 6.4 °F 38% 30.08 in 10.0 mi East 3.5 mph - N/A   Clear
4:35 PM 27.9 °F 21.5 °F 8.8 °F 45% 30.08 in 10.0 mi NNE 5.8 mph - N/A   Clear
4:55 PM 27.1 °F 19.7 °F 8.1 °F 45% 30.08 in 10.0 mi NNE 6.9 mph - N/A   Clear
5:15 PM 24.8 °F 16.9 °F 9.7 °F 53% 30.07 in 10.0 mi NE 6.9 mph - N/A   Clear
5:35 PM 23.4 °F 15.2 °F 8.6 °F 53% 30.07 in 10.0 mi NE 6.9 mph - N/A   Clear
5:55 PM 20.8 °F 11.2 °F 8.2 °F 58% 30.07 in 10.0 mi NNE 8.1 mph - N/A   Clear
6:15 PM 19.2 °F 11.3 °F 7.7 °F 61% 30.06 in 10.0 mi NE 5.8 mph - N/A   Clear
6:35 PM 18.0 °F 9.8 °F 7.0 °F 62% 30.06 in 10.0 mi NE 5.8 mph - N/A   Clear
6:55 PM 16.3 °F - 6.6 °F 66% 30.06 in 10.0 mi Calm Calm - N/A   Clear
7:15 PM 16.5 °F - 6.4 °F 65% 30.07 in 10.0 mi Calm Calm - N/A   Clear
7:35 PM 16.0 °F - 5.9 °F 65% 30.07 in 10.0 mi Calm Calm - N/A   Clear
7:55 PM 16.3 °F - 5.9 °F 64% 30.07 in 10.0 mi Calm Calm - N/A   Clear
8:15 PM 16.9 °F - 5.9 °F 62% 30.07 in 10.0 mi Calm Calm - N/A   Clear
8:35 PM 15.8 °F - 5.4 °F 63% 30.07 in 10.0 mi Calm Calm - N/A   Clear
8:55 PM 15.4 °F - 5.4 °F 64% 30.07 in 10.0 mi Calm Calm - N/A   Clear
9:15 PM 14.9 °F 9.2 °F 4.1 °F 62% 30.06 in 10.0 mi East 3.5 mph - N/A   Clear
9:35 PM 14.0 °F 8.2 °F 5.0 °F 67% 30.06 in 10.0 mi East 3.5 mph - N/A   Clear
9:55 PM 14.2 °F - 4.6 °F 66% 30.06 in 10.0 mi Calm Calm - N/A   Clear
10:15 PM 14.9 °F - 5.4 °F 66% 30.05 in 10.0 mi Calm Calm - N/A   Clear
10:35 PM 10.9 °F - 3.4 °F 72% 30.05 in 10.0 mi Calm Calm - N/A   Clear
10:55 PM 12.9 °F - 3.9 °F 67% 30.04 in 10.0 mi Calm Calm - N/A   Clear
11:15 PM 8.8 °F - 0.9 °F 70% 30.03 in 10.0 mi Calm Calm - N/A   Clear
11:35 PM 10.9 °F - 4.1 °F 74% 30.02 in 10.0 mi Calm Calm - N/A   Clear
11:55 PM 11.7 °F 5.5 °F 3.6 °F 70% 30.02 in 10.0 mi East 3.5 mph - N/A   Clear